TimeCDT,TemperatureF,Dew PointF,Humidity,Sea Level PressureIn,VisibilityMPH,Wind Direction,Wind SpeedMPH,Gust SpeedMPH,PrecipitationIn,Events,Conditions,WindDirDegrees,DateUTC
12:15 AM,59.0,53.6,82,30.14,10.0,Calm,Calm,-,N/A,,Clear,0,2013-08-23 05:15:00
12:35 AM,59.0,53.6,82,30.14,10.0,Calm,Calm,-,N/A,,Clear,0,2013-08-23 05:35:00
12:55 AM,57.2,53.6,88,30.15,10.0,Calm,Calm,-,N/A,,Clear,0,2013-08-23 05:55:00
1:15 AM,59.0,53.6,82,30.14,10.0,Calm,Calm,-,N/A,,Clear,0,2013-08-23 06:15:00
1:35 AM,55.4,51.8,88,30.14,10.0,Calm,Calm,-,N/A,,Clear,0,2013-08-23 06:35:00
1:55 AM,57.2,53.6,88,30.14,10.0,Calm,Calm,-,N/A,,Clear,0,2013-08-23 06:55:00
2:15 AM,55.4,53.6,94,30.14,10.0,Calm,Calm,-,N/A,,Clear,0,2013-08-23 07:15:00
2:35 AM,55.4,51.8,88,30.14,10.0,Calm,Calm,-,N/A,,Clear,0,2013-08-23 07:35:00
2:55 AM,55.4,51.8,88,30.15,10.0,Calm,Calm,-,N/A,,Clear,0,2013-08-23 07:55:00
3:15 AM,55.4,51.8,88,30.15,10.0,Calm,Calm,-,N/A,,Clear,0,2013-08-23 08:15:00
3:35 AM,55.4,51.8,88,30.15,10.0,Calm,Calm,-,N/A,,Clear,0,2013-08-23 08:35:00
3:55 AM,55.4,51.8,88,30.15,10.0,Calm,Calm,-,N/A,,Clear,0,2013-08-23 08:55:00
4:15 AM,55.4,51.8,88,30.15,10.0,Calm,Calm,-,N/A,,Clear,0,2013-08-23 09:15:00
4:35 AM,55.4,51.8,88,30.15,10.0,Calm,Calm,-,N/A,,Clear,0,2013-08-23 09:35:00
4:55 AM,55.4,51.8,88,30.16,10.0,Calm,Calm,-,N/A,,Clear,0,2013-08-23 09:55:00
5:15 AM,55.4,51.8,88,30.16,10.0,Calm,Calm,-,N/A,,Clear,0,2013-08-23 10:15:00
5:35 AM,55.4,51.8,88,30.17,10.0,Calm,Calm,-,N/A,,Clear,0,2013-08-23 10:35:00
5:55 AM,55.4,51.8,88,30.18,10.0,Calm,Calm,-,N/A,,Clear,0,2013-08-23 10:55:00
6:15 AM,53.6,51.8,94,30.18,10.0,Calm,Calm,-,N/A,,Clear,0,2013-08-23 11:15:00
6:35 AM,55.4,51.8,88,30.19,10.0,Calm,Calm,-,N/A,,Clear,0,2013-08-23 11:35:00
6:45 AM,55.4,53.6,94,30.19,10.0,Calm,Calm,-,N/A,,Clear,0,2013-08-23 11:45:00
6:55 AM,55.4,53.6,94,30.19,10.0,Calm,Calm,-,N/A,,Clear,0,2013-08-23 11:55:00
7:45 AM,62.6,57.2,82,30.20,10.0,Calm,Calm,-,N/A,,Clear,0,2013-08-23 12:45:00
8:45 AM,68.0,60.8,78,30.21,10.0,North,4.6,-,N/A,,Clear,10,2013-08-23 13:45:00
9:45 AM,73.4,57.2,57,30.21,10.0,NE,3.5,-,N/A,,Clear,40,2013-08-23 14:45:00
10:45 AM,75.2,51.8,44,30.21,10.0,East,5.8,-,N/A,,Clear,80,2013-08-23 15:45:00
11:45 AM,75.2,46.4,36,30.21,10.0,ENE,9.2,-,N/A,,Clear,70,2013-08-23 16:45:00
12:45 PM,77.0,50.0,39,30.21,10.0,East,9.2,-,N/A,,Clear,100,2013-08-23 17:45:00
1:45 PM,77.0,50.0,39,30.20,10.0,East,5.8,-,N/A,,Clear,100,2013-08-23 18:45:00
2:45 PM,77.0,53.6,44,30.19,10.0,ESE,6.9,-,N/A,,Clear,120,2013-08-23 19:45:00
3:45 PM,75.2,55.4,50,30.18,10.0,ENE,11.5,-,N/A,,Clear,60,2013-08-23 20:45:00
4:45 PM,75.2,55.4,50,30.19,10.0,ENE,6.9,-,N/A,,Clear,70,2013-08-23 21:45:00
5:45 PM,73.4,55.4,53,30.18,10.0,ENE,5.8,-,N/A,,Clear,70,2013-08-23 22:45:00
6:45 PM,71.6,57.2,60,30.18,10.0,East,5.8,-,N/A,,Clear,90,2013-08-23 23:45:00
7:50 PM,69.8,57.2,64,30.18,10.0,East,5.8,-,N/A,,Clear,80,2013-08-24 00:50:00
8:44 PM,66.2,57.2,73,30.19,10.0,East,4.6,-,N/A,,Clear,90,2013-08-24 01:44:00
9:15 PM,64.4,55.4,73,30.20,10.0,Calm,Calm,-,N/A,,Clear,0,2013-08-24 02:15:00
9:35 PM,60.8,55.4,82,30.21,10.0,Calm,Calm,-,N/A,,Clear,0,2013-08-24 02:35:00
9:55 PM,62.6,55.4,77,30.21,10.0,Calm,Calm,-,N/A,,Clear,0,2013-08-24 02:55:00
10:15 PM,60.8,55.4,82,30.21,10.0,Calm,Calm,-,N/A,,Clear,0,2013-08-24 03:15:00
10:35 PM,60.8,55.4,82,30.21,10.0,Calm,Calm,-,N/A,,Clear,0,2013-08-24 03:35:00
10:55 PM,59.0,55.4,88,30.21,10.0,Calm,Calm,-,N/A,,Clear,0,2013-08-24 03:55:00
11:15 PM,59.0,55.4,88,30.21,10.0,Calm,Calm,-,N/A,,Clear,0,2013-08-24 04:15:00
11:35 PM,59.0,55.4,88,30.21,10.0,Calm,Calm,-,N/A,,Clear,0,2013-08-24 04:35:00
11:55 PM,59.0,55.4,88,30.21,10.0,Calm,Calm,-,N/A,,Clear,0,2013-08-24 04:55:00